Simultaneous Nadir Overpasses (SNOs) Predictions

Prediction of SNOs between GOES-14 and NPP Satellite Orbit:

Table of predicted SNOs for the next 14.0 days since TLE Epoch: 2/11/2023
Index Date Time (GOES-14) GOES-14 Lat,Lon NPP Lat,Lon Distance(km) Time Diff (sec)
1 02/12/2023 08:47:11 0.01,-108.17 0.38,-109.70 174.94 80
2 02/13/2023 08:25:47 0.01,-108.16 -0.64,-105.17 339.94 80
3 02/14/2023 20:47:43 -0.02,-108.20 -0.54,-110.47 258.97 80
4 02/15/2023 20:31:39 -0.01,-108.18 0.49,-105.94 256.02 80
5 02/17/2023 08:53:26 0.02,-108.09 0.70,-111.20 353.53 80
6 02/18/2023 08:32:01 0.02,-108.07 -0.27,-106.65 160.94 80
7 02/19/2023 20:53:57 -0.03,-108.11 -0.89,-111.96 438.85 80
8 02/20/2023 20:37:52 -0.02,-108.09 0.15,-107.43 76.36 80
9 02/23/2023 08:40:54 0.02,-108.00 0.04,-108.15 16.96 80
10 02/24/2023 08:19:29 0.01,-107.98 -0.95,-103.61 498.00 80
